Main page


Airports :

Sialkot, Pakistan

Sialkot International Airport

latitude: 32-32N, longitude: 74-22E, elevation: 255 m

Current weather observation

The report was made 18 minutes ago, at 06:00 UTC
Wind 12 kt from the Northwest
Temperature 23°C
Humidity 44%
Pressure 1015 hPa
Visibility: 4000 m
Scattered clouds at a height of 4000 ft
Scattered clouds at a height of 10000 ft

METAR: OPST 200600Z 31012KT 4000 HZ SCT040 SCT100 23/10 Q1015 NOSIG RH45

Time: 11:18 (06:18 UTC)

TAF: missing

Weather observations and forecasts of more than 4000 airports (METAR and TAF reports).

The available stations are represented by yellow and red dots on the map.

Hover mouse over dot to see the name of the station.

Then click to see weather observations and forecasts.

To change the map : click on the green buttons with a black cross to zoom in, on the green button with a dash to zoom out, or on the green arrows for adjacent maps.